[[{"header":{"parameterUnit":"m.s-1","parameterCategory":1,"la1":30.2991,"la2":30.254,"lo1":-89.0895,"lo2":-89.0444,"dy":0.0017,"dx":0.0017,"nx":28,"ny":28,"refTime":"2025-08-28T21:00:00:Z","depth":0,"parameterNumber":2,"parameterNumberName":"U-component_of_WINDS"},"data":[0,0,0,0,0,0,0,0,0,0,0,0,0,0,0,0,0,0,0,0,0,0,0,0,0,0,0,0,0,0,0,0,0,0,0,0,0,0,0,0,0,0,0,0,0,0,0,0,0,0,0,0,0,0,0,0,0,0,2.3093,2.3094,0,2.3139,2.3139,2.314,2.3032,2.3029,2.3025,2.3022,2.3067,2.3072,2.3076,0,0,0,0,0,0,0,0,0,0,0,0,0,2.2912,2.2916,2.3093,2.3094,2.3094,2.3139,2.3139,2.314,2.3033,2.3028,2.3024,2.302,2.3066,2.3071,2.3076,0,0,0,0,0,0,0,0,0,0,0,0,0,2.2977,2.2917,2.3093,2.3046,2.3042,2.3139,2.3139,2.314,2.3033,2.3028,2.3023,2.3018,2.3064,2.3071,2.3077,2.3221,0,0,2.3097,2.31,0,0,0,0,0,0,0,0,2.2974,2.2984,2.3052,2.3049,2.3045,2.3074,2.3092,2.3167,2.3035,2.3037,2.3022,2.3016,2.3074,2.3079,2.3099,2.3223,2.3225,2.3098,2.3102,2.3105,2.3107,0,0,0,0,0,0,0,2.2969,2.2982,2.3111,2.3053,2.3049,2.3022,2.3026,2.3106,2.3083,2.3036,2.3028,2.3035,2.3071,2.3093,2.3099,2.3225,2.3098,2.3104,2.3108,2.311,2.347,2.3476,0,0,0,0,0,0,2.2971,2.2978,2.3109,2.3112,2.2996,2.303,2.3034,2.307,2.3082,2.3079,2.304,2.303,2.3084,2.3092,2.3101,2.327,2.3105,2.3111,2.3115,2.3465,2.3472,2.3478,0,0,0,0,0,0,2.2967,2.2984,2.3108,2.3043,2.3057,2.3038,2.308,2.3074,2.3096,2.3085,2.308,2.3067,2.3081,2.3091,2.3192,2.327,2.3114,2.312,2.3458,2.3467,2.3475,2.3611,0,0,0,0,0,0,2.2963,2.2983,2.3038,2.3045,2.3061,2.3199,2.3085,2.3078,2.3108,2.3096,2.3109,2.3106,2.3077,2.3183,2.3199,2.3277,2.3125,2.3451,2.3462,2.3472,2.3599,2.3623,2.3643,0,0,0,0,0,2.2957,2.3074,2.3041,2.3057,2.3129,2.3204,2.3213,2.3177,2.3114,2.3169,2.3162,2.3106,2.3259,2.3194,2.3211,2.3292,2.3446,2.3459,2.3471,2.359,2.3618,2.3643,0,0,0,0,0,0,2.3075,2.3074,2.3037,2.3161,2.3183,2.3185,2.3253,2.3209,2.3249,2.3236,2.319,2.3194,2.3304,2.3308,2.3235,2.3432,2.3342,2.3358,2.3426,2.3453,2.3475,2.3472,2.3131,0,0,0,0,0,2.3115,2.3177,2.3172,2.3281,2.3294,2.3273,2.3304,2.3275,2.3296,2.3305,2.3305,2.3328,2.3381,2.3417,2.3465,2.3599,2.3601,2.3663,2.3685,2.3703,2.3719,2.3791,2.3819,2.3519,2.3519,2.3519,0,0,2.3199,2.3206,2.3248,2.3305,2.3319,2.3384,2.3281,2.3353,2.3401,2.3315,2.3411,2.3413,2.3435,2.3553,2.3605,2.356,2.3802,2.3719,2.3734,2.3739,2.3807,2.3835,2.386,2.3528,2.3526,2.3525,0,0,2.3386,2.3397,2.349,2.3506,2.3529,2.3514,2.3537,2.3546,2.3544,2.3639,2.3577,2.3632,2.3725,2.3744,2.3765,2.396,2.391,2.3977,2.4092,2.4163,2.4186,2.4207,2.4278,2.4303,2.3992,2.3992,2.3992,0,2.3488,2.3583,2.3543,2.362,2.3648,2.3574,2.3668,2.3685,2.3723,2.3744,2.3692,2.3808,2.3817,2.3939,2.3987,2.4007,2.4031,2.3976,2.4186,2.4207,2.4225,2.4292,2.4319,2.4,2.3999,2.3999,2.3998,0,2.3707,2.3774,2.3846,2.3886,2.3921,2.4006,2.3979,2.4019,2.3988,2.3978,2.4076,2.4085,2.4135,2.4161,2.413,2.428,2.4251,2.4194,2.4102,2.4263,2.4325,2.435,2.4012,2.4009,2.4007,2.4005,0,0,2.397,2.3986,2.4014,2.4031,2.4051,2.4102,2.4184,2.4233,2.4269,2.4298,2.4366,2.4446,2.4394,2.4418,2.4389,2.4451,2.4606,2.4386,2.4386,2.4428,2.4773,2.4817,2.4847,2.4573,2.4578,2.4581,2.4771,0,2.4155,2.4297,2.4264,2.4403,2.4465,2.4397,2.4468,2.4488,2.4481,2.4533,2.4524,2.4583,2.4508,2.4523,2.4581,2.4575,2.4675,2.4561,2.4636,2.4639,2.4634,2.4879,2.4926,2.5105,2.4795,2.4799,2.4802,0,2.439,2.4429,2.4576,2.4587,2.4612,2.4677,2.4719,2.4769,2.4791,2.4781,2.481,2.4769,2.485,2.4757,2.4868,2.4791,2.482,2.4822,2.4828,2.4834,2.4731,2.4894,2.5161,2.5188,2.484,2.4837,2.4834,0,2.4569,2.4657,2.4757,2.4773,2.4789,2.4836,2.4845,2.4861,2.4893,2.4931,2.4951,2.4997,2.5023,2.5059,2.5031,2.4966,2.5148,2.5052,2.5143,2.5144,2.5185,2.5183,2.5462,2.5202,2.5202,2.5201,2.5201,0,2.478,2.4873,2.4837,2.4899,2.5,2.4961,2.5063,2.5063,2.5079,2.5139,2.5082,2.5139,2.5099,2.5153,2.5132,2.5228,2.5239,2.5234,2.5228,2.524,2.5241,2.5259,2.5247,2.5208,2.5207,2.5205,2.5204,0,2.4997,2.4977,2.5081,2.5087,2.5091,2.5166,2.5171,2.5228,2.5217,2.5294,2.531,2.5293,2.5354,2.5329,2.5394,2.5379,2.5503,2.5479,2.5496,2.5491,2.5583,2.5575,2.5884,2.5923,2.5637,2.564,2.5642,0,2.5134,2.5204,2.5218,2.5255,2.5268,2.5327,2.5359,2.5324,2.536,2.5391,2.5444,2.55,2.5543,2.5644,2.5637,2.5686,2.5664,2.5769,2.5671,2.5682,2.5667,2.5664,2.5671,2.5789,2.5792,2.5795,2.5797,0,2.5379,2.5366,2.5416,2.5463,2.5503,2.5538,2.5568,2.5601,2.5567,2.5611,2.5673,2.5706,2.5772,2.5829,2.5873,2.5881,2.5835,2.5828,2.5852,2.5866,2.5873,2.5872,2.5551,2.5821,2.5819,2.5817,2.5816,2.5815,2.5561,2.562,2.564,2.5697,2.5716,2.5746,2.58,2.5796,2.5848,2.5899,2.5875,2.5947,2.5967,2.6022,2.6037,2.6093,2.6052,2.6086,2.6094,2.6104,2.6117,2.5864,2.61,2.6099,2.6099,2.6098,2.6098,0,2.5804,2.5814,2.5867,2.5911,2.5957,2.5908,2.5939,2.598,2.6045,2.6068,2.6112,2.6184,2.6239,2.6237,2.6288,2.6333,2.6313,2.6348,2.6344,2.6347,2.615,2.6125,2.6363,2.6363,2.6363,2.6363,2.6363,2.6363,2.5936,2.6035,2.6024,2.6131,2.614,2.6211,2.6233,2.626,2.6278,2.6361,2.6407,2.6405,2.6419,2.647,2.6518,2.6516,2.6538,2.6582,2.6572,2.6387,2.6361,2.6336,2.6312,2.6586,2.6587,2.6765,2.6766,2.6768]},{"header":{"parameterUnit":"m.s-1","parameterCategory":1,"la1":30.2991,"la2":30.254,"lo1":-89.0895,"lo2":-89.0444,"dy":0.0017,"dx":0.0017,"nx":28,"ny":28,"refTime":"2025-08-28T21:00:00:Z","depth":0,"parameterNumber":3,"parameterNumberName":"V-component_of_WINDS"},"data":[0,0,0,0,0,0,0,0,0,0,0,0,0,0,0,0,0,0,0,0,0,0,0,0,0,0,0,0,0,0,0,0,0,0,0,0,0,0,0,0,0,0,0,0,0,0,0,0,0,0,0,0,0,0,0,0,0,0,-2.1298,-2.1299,0,-2.1347,-2.1348,-2.1348,-2.1384,-2.1385,-2.1385,-2.1385,-2.1431,-2.1432,-2.1433,0,0,0,0,0,0,0,0,0,0,0,0,0,-2.1232,-2.1233,-2.1298,-2.1299,-2.1299,-2.1347,-2.1348,-2.1348,-2.1384,-2.1385,-2.1385,-2.1386,-2.1431,-2.1432,-2.1433,0,0,0,0,0,0,0,0,0,0,0,0,0,-2.1269,-2.1233,-2.1298,-2.1323,-2.1326,-2.1347,-2.1348,-2.1348,-2.1384,-2.1385,-2.1385,-2.1386,-2.1431,-2.1432,-2.1433,-2.1432,0,0,-2.1437,-2.1438,0,0,0,0,0,0,0,0,-2.1266,-2.1271,-2.1319,-2.1322,-2.1325,-2.136,-2.1341,-2.1376,-2.1384,-2.1362,-2.1385,-2.1386,-2.1407,-2.141,-2.1418,-2.1434,-2.1436,-2.1438,-2.1438,-2.1439,-2.1439,0,0,0,0,0,0,0,-2.1264,-2.1269,-2.1317,-2.132,-2.1323,-2.1331,-2.1336,-2.1348,-2.1381,-2.1364,-2.1367,-2.1372,-2.1409,-2.1417,-2.142,-2.1436,-2.1438,-2.1439,-2.144,-2.144,-2.1451,-2.145,0,0,0,0,0,0,-2.1258,-2.1267,-2.1316,-2.1319,-2.1296,-2.1331,-2.1338,-2.1348,-2.1381,-2.1387,-2.1372,-2.1374,-2.1414,-2.1418,-2.1421,-2.142,-2.1439,-2.144,-2.1441,-2.1451,-2.1451,-2.145,0,0,0,0,0,0,-2.1256,-2.1262,-2.1314,-2.1294,-2.1301,-2.1332,-2.1343,-2.1349,-2.1357,-2.1387,-2.1393,-2.1374,-2.1415,-2.1419,-2.1429,-2.1422,-2.1441,-2.1442,-2.1452,-2.1451,-2.1451,-2.1418,0,0,0,0,0,0,-2.1254,-2.1261,-2.1262,-2.1293,-2.1302,-2.1322,-2.1343,-2.135,-2.136,-2.1363,-2.1391,-2.1396,-2.1415,-2.1426,-2.143,-2.1424,-2.1443,-2.1453,-2.1452,-2.1451,-2.142,-2.1417,-2.1414,0,0,0,0,0,-2.1252,-2.1251,-2.1262,-2.1268,-2.1304,-2.1321,-2.1326,-2.135,-2.1359,-2.1359,-2.1378,-2.1395,-2.1423,-2.1427,-2.1431,-2.1426,-2.1453,-2.1452,-2.1451,-2.1422,-2.1417,-2.1414,0,0,0,0,0,0,-2.1217,-2.1255,-2.1268,-2.1278,-2.1296,-2.1327,-2.1329,-2.1345,-2.136,-2.1362,-2.139,-2.1395,-2.1401,-2.1415,-2.1419,-2.1425,-2.144,-2.1439,-2.1416,-2.1412,-2.1409,-2.1405,-2.1444,0,0,0,0,0,-2.121,-2.1223,-2.1255,-2.126,-2.1269,-2.1297,-2.1306,-2.1322,-2.1342,-2.135,-2.1369,-2.1387,-2.1399,-2.1407,-2.142,-2.1423,-2.1428,-2.1421,-2.1418,-2.1415,-2.1414,-2.1414,-2.1411,-2.1446,-2.1446,-2.1446,0,0,-2.1197,-2.1219,-2.1225,-2.1254,-2.127,-2.1281,-2.1303,-2.1314,-2.1322,-2.1351,-2.1361,-2.1376,-2.1397,-2.1402,-2.1406,-2.1414,-2.1405,-2.1413,-2.1411,-2.1411,-2.1413,-2.1409,-2.1406,-2.1446,-2.1446,-2.1446,0,0,-2.1177,-2.1196,-2.1202,-2.1218,-2.1242,-2.1261,-2.1262,-2.1291,-2.1302,-2.1313,-2.1335,-2.1343,-2.1365,-2.1378,-2.1388,-2.1372,-2.1387,-2.1376,-2.1358,-2.1358,-2.1356,-2.1353,-2.1346,-2.1343,-2.1375,-2.1375,-2.1375,0,-2.1156,-2.1175,-2.1202,-2.1211,-2.1222,-2.125,-2.1255,-2.1268,-2.1295,-2.1302,-2.1311,-2.1337,-2.1354,-2.1362,-2.1358,-2.1365,-2.1366,-2.1372,-2.1354,-2.1352,-2.135,-2.1343,-2.1341,-2.1373,-2.1373,-2.1374,-2.1374,0,-2.1148,-2.116,-2.1161,-2.1187,-2.1198,-2.1205,-2.1232,-2.1239,-2.1255,-2.1272,-2.1281,-2.1302,-2.1319,-2.1322,-2.1337,-2.1332,-2.1336,-2.1349,-2.1364,-2.1345,-2.1338,-2.1336,-2.1371,-2.1371,-2.1372,-2.1372,0,0,-2.1107,-2.1148,-2.1148,-2.1159,-2.1188,-2.1197,-2.1204,-2.1222,-2.1227,-2.1245,-2.125,-2.1267,-2.128,-2.129,-2.1307,-2.1308,-2.1291,-2.1321,-2.1321,-2.1313,-2.1285,-2.1273,-2.127,-2.1302,-2.1302,-2.1302,-2.1282,0,-2.1091,-2.1107,-2.1131,-2.1138,-2.1148,-2.1174,-2.118,-2.1197,-2.1213,-2.1223,-2.124,-2.1251,-2.1268,-2.1274,-2.1276,-2.1293,-2.1286,-2.1295,-2.1305,-2.1305,-2.1298,-2.1267,-2.1255,-2.1236,-2.128,-2.128,-2.128,0,-2.1074,-2.109,-2.1099,-2.1125,-2.1131,-2.1136,-2.1153,-2.1163,-2.1182,-2.1194,-2.1205,-2.1224,-2.1231,-2.1245,-2.1254,-2.126,-2.1265,-2.1274,-2.1274,-2.1275,-2.129,-2.1265,-2.1231,-2.1227,-2.1276,-2.1277,-2.1277,0,-2.1041,-2.1066,-2.1073,-2.1083,-2.1115,-2.1117,-2.113,-2.115,-2.1159,-2.1174,-2.1179,-2.1194,-2.1202,-2.1212,-2.1233,-2.1242,-2.1239,-2.1256,-2.1247,-2.1246,-2.1244,-2.1243,-2.1208,-2.125,-2.125,-2.125,-2.125,0,-2.102,-2.1023,-2.1059,-2.1063,-2.1067,-2.1094,-2.1097,-2.1112,-2.113,-2.1136,-2.116,-2.1166,-2.1194,-2.1202,-2.1219,-2.1222,-2.1226,-2.1234,-2.1238,-2.1231,-2.1229,-2.1234,-2.1235,-2.125,-2.125,-2.125,-2.125,0,-2.0984,-2.1008,-2.1018,-2.1047,-2.1054,-2.1056,-2.108,-2.1084,-2.1102,-2.1109,-2.1113,-2.1139,-2.115,-2.1172,-2.1189,-2.12,-2.1199,-2.1208,-2.1192,-2.1195,-2.1184,-2.1184,-2.1148,-2.1144,-2.1191,-2.119,-2.119,0,-2.0968,-2.0971,-2.1,-2.1007,-2.1019,-2.103,-2.1039,-2.1065,-2.1073,-2.1094,-2.1095,-2.1108,-2.112,-2.1135,-2.1155,-2.1167,-2.1175,-2.1162,-2.1177,-2.1169,-2.1172,-2.1171,-2.117,-2.1158,-2.1157,-2.1157,-2.1156,0,-2.0936,-2.0947,-2.096,-2.0976,-2.0986,-2.1,-2.1015,-2.1019,-2.1048,-2.1055,-2.1067,-2.1076,-2.1093,-2.1104,-2.1119,-2.1131,-2.1147,-2.1152,-2.115,-2.1141,-2.1132,-2.1135,-2.1181,-2.1152,-2.1152,-2.1153,-2.1153,-2.1153,-2.0908,-2.0911,-2.0932,-2.0945,-2.0959,-2.0972,-2.0977,-2.0995,-2.1005,-2.1022,-2.1036,-2.1046,-2.1064,-2.1086,-2.1097,-2.1103,-2.1112,-2.111,-2.1109,-2.1107,-2.1103,-2.1132,-2.1106,-2.1107,-2.1107,-2.1107,-2.1107,0,-2.0875,-2.089,-2.0902,-2.0922,-2.0931,-2.0947,-2.0964,-2.097,-2.0979,-2.0995,-2.1005,-2.1018,-2.1029,-2.1049,-2.1061,-2.1063,-2.107,-2.1065,-2.1064,-2.1066,-2.1096,-2.1096,-2.1058,-2.1058,-2.1058,-2.1058,-2.1058,-2.1058,-2.086,-2.0866,-2.0879,-2.0892,-2.0906,-2.0917,-2.0924,-2.0936,-2.0948,-2.0961,-2.0971,-2.0984,-2.1001,-2.1015,-2.1025,-2.1031,-2.1033,-2.1025,-2.1032,-2.106,-2.1064,-2.1068,-2.1068,-2.1026,-2.1026,-2.1001,-2.1001,-2.1001]}]]